[[{"header":{"parameterUnit":"m.s-1","parameterCategory":1,"la1":30.2991,"la2":30.254,"lo1":-89.0895,"lo2":-89.0444,"dy":0.0017,"dx":0.0017,"nx":28,"ny":28,"refTime":"2025-06-22T03:00:00:Z","depth":0,"parameterNumber":2,"parameterNumberName":"U-component_of_WINDS"},"data":[0,0,0,0,0,0,0,0,0,0,0,0,0,0,0,0,0,0,0,0,0,0,0,0,0,0,0,0,0,0,0,0,0,0,0,0,0,0,0,0,0,0,0,0,0,0,0,0,0,0,0,0,0,0,0,0,0,0,-1.0149,-1.0148,0,-1.0029,-1.0027,-1.0026,-0.9967,-0.9967,-0.9967,-0.9967,-0.9843,-0.984,-0.9837,0,0,0,0,0,0,0,0,0,0,0,0,0,-1.0329,-1.0326,-1.0149,-1.0148,-1.0146,-1.0029,-1.0027,-1.0026,-0.9967,-0.9967,-0.9967,-0.9967,-0.9844,-0.9841,-0.9837,0,0,0,0,0,0,0,0,0,0,0,0,0,-1.0234,-1.0325,-1.015,-1.0103,-1.0097,-1.0029,-1.0027,-1.0025,-0.9967,-0.9967,-0.9967,-0.9967,-0.9846,-0.9841,-0.9836,-0.9806,0,0,-0.9821,-0.9819,0,0,0,0,0,0,0,0,-1.024,-1.0228,-1.0111,-1.0106,-1.01,-1.0013,-1.0045,-0.9952,-0.9967,-1.0016,-0.9967,-0.9967,-0.99,-0.989,-0.9868,-0.98,-0.9795,-0.9821,-0.9818,-0.9816,-0.9814,0,0,0,0,0,0,0,-1.0246,-1.0232,-1.0102,-1.0109,-1.0102,-1.0088,-1.0074,-1.0027,-0.9959,-1.0012,-1.0007,-0.9994,-0.9897,-0.9873,-0.9864,-0.9793,-0.9821,-0.9816,-0.9813,-0.9811,-0.9695,-0.9695,0,0,0,0,0,0,-1.026,-1.0238,-1.0105,-1.0098,-1.0171,-1.0085,-1.007,-1.0041,-0.996,-0.9947,-0.9994,-0.9991,-0.9881,-0.987,-0.986,-0.9819,-0.9816,-0.9811,-0.9808,-0.9695,-0.9695,-0.9695,0,0,0,0,0,0,-1.0264,-1.0249,-1.011,-1.0167,-1.0148,-1.0082,-1.005,-1.0038,-1.0014,-0.9946,-0.9934,-0.9982,-0.9881,-0.9867,-0.982,-0.9814,-0.9809,-0.9804,-0.9695,-0.9695,-0.9695,-0.9738,0,0,0,0,0,0,-1.027,-1.0251,-1.0238,-1.0167,-1.0145,-1.0072,-1.0049,-1.0036,-1.0006,-1.0002,-0.9932,-0.992,-0.988,-0.9828,-0.9815,-0.9807,-0.98,-0.9695,-0.9695,-0.9695,-0.9737,-0.9739,-0.9741,0,0,0,0,0,-1.0276,-1.0255,-1.0238,-1.0222,-1.0128,-1.0072,-1.006,-1.0013,-1.0006,-0.9993,-0.9949,-0.9922,-0.9817,-0.9823,-0.9809,-0.9799,-0.9696,-0.9695,-0.9695,-0.9736,-0.9739,-0.9741,0,0,0,0,0,0,-1.0328,-1.0245,-1.0225,-1.018,-1.0134,-1.0062,-1.0044,-1.0018,-0.9973,-0.997,-0.9915,-0.99,-0.9858,-0.9824,-0.9832,-0.9766,-0.9754,-0.975,-0.979,-0.9792,-0.9794,-0.9803,-0.9796,0,0,0,0,0,-1.0334,-1.0295,-1.0225,-1.0192,-1.017,-1.0111,-1.0085,-1.0053,-1.0003,-0.9983,-0.9936,-0.9888,-0.9844,-0.9816,-0.9772,-0.9732,-0.9716,-0.9718,-0.9721,-0.9723,-0.9721,-0.9697,-0.9697,-0.9694,-0.9694,-0.9694,0,0,-1.0346,-1.0296,-1.0275,-1.0201,-1.0161,-1.0122,-1.0095,-1.0055,-1.0025,-0.9977,-0.9929,-0.9894,-0.9836,-0.9793,-0.9771,-0.9763,-0.9718,-0.9722,-0.9725,-0.9721,-0.9697,-0.9697,-0.9698,-0.9693,-0.9693,-0.9693,0,0,-1.0349,-1.0307,-1.0275,-1.0236,-1.0176,-1.0137,-1.013,-1.0062,-1.0036,-0.9988,-0.9951,-0.9915,-0.9841,-0.9802,-0.9772,-0.9761,-0.9734,-0.9748,-0.976,-0.9738,-0.9738,-0.9738,-0.9734,-0.9733,-0.9746,-0.9746,-0.9746,0,-1.0371,-1.0311,-1.0262,-1.0224,-1.0193,-1.0147,-1.0115,-1.0079,-1.0008,-0.9988,-0.998,-0.9885,-0.9844,-0.9791,-0.9788,-0.9766,-0.9755,-0.9755,-0.9742,-0.9741,-0.9741,-0.9736,-0.9735,-0.9748,-0.9748,-0.9748,-0.9747,0,-1.0342,-1.0301,-1.0282,-1.0215,-1.0181,-1.0147,-1.0093,-1.0065,-1.0037,-0.9999,-0.9951,-0.99,-0.9844,-0.9829,-0.9801,-0.9772,-0.9769,-0.9752,-0.9739,-0.9744,-0.9739,-0.9737,-0.9751,-0.975,-0.975,-0.9749,0,0,-1.0373,-1.0279,-1.0273,-1.0242,-1.0173,-1.014,-1.0104,-1.0049,-1.0027,-0.998,-0.9948,-0.9886,-0.987,-0.9837,-0.9804,-0.9784,-0.9779,-0.977,-0.9767,-0.9773,-0.9744,-0.9757,-0.9756,-0.9761,-0.9761,-0.976,-0.9749,0,-1.0365,-1.0297,-1.0252,-1.0202,-1.0163,-1.012,-1.0088,-1.0042,-1.0006,-0.9969,-0.9929,-0.9886,-0.9868,-0.9848,-0.9827,-0.9784,-0.9772,-0.9784,-0.9731,-0.973,-0.9746,-0.9753,-0.9767,-0.9759,-0.9747,-0.9746,-0.9746,0,-1.0347,-1.0301,-1.0247,-1.0183,-1.0165,-1.0137,-1.0084,-1.0048,-0.9996,-0.9971,-0.9935,-0.9901,-0.9861,-0.9851,-0.9795,-0.9805,-0.978,-0.9756,-0.9755,-0.9748,-0.9738,-0.9747,-0.9755,-0.9754,-0.9742,-0.9743,-0.9743,0,-1.0375,-1.03,-1.0258,-1.0232,-1.0156,-1.0138,-1.0105,-1.0052,-1.0023,-0.9977,-0.9958,-0.9908,-0.988,-0.9843,-0.9797,-0.9794,-0.9746,-0.9732,-0.9724,-0.9725,-0.9716,-0.9717,-0.972,-0.97,-0.9701,-0.9701,-0.9701,0,-1.0372,-1.034,-1.0269,-1.0243,-1.0207,-1.0156,-1.0122,-1.0086,-1.004,-1.0006,-0.9966,-0.9935,-0.9877,-0.9839,-0.9803,-0.9763,-0.975,-0.973,-0.972,-0.9733,-0.9736,-0.9716,-0.9715,-0.97,-0.97,-0.97,-0.97,0,-1.0397,-1.0348,-1.0299,-1.0231,-1.0213,-1.0189,-1.0131,-1.0104,-1.0067,-1.0025,-1.0012,-0.9953,-0.9907,-0.9858,-0.9795,-0.9771,-0.9732,-0.9719,-0.9749,-0.9744,-0.9739,-0.974,-0.973,-0.9726,-0.9709,-0.971,-0.971,0,-1.0397,-1.0372,-1.0301,-1.0276,-1.0244,-1.0204,-1.0174,-1.0123,-1.0094,-1.0033,-1.0013,-0.9964,-0.9922,-0.9851,-0.9802,-0.9754,-0.974,-0.9739,-0.9732,-0.9746,-0.974,-0.9742,-0.9739,-0.9741,-0.9742,-0.9742,-0.9743,0,-1.0404,-1.0381,-1.0339,-1.0289,-1.0254,-1.0212,-1.0168,-1.015,-1.0091,-1.006,-1.0012,-0.998,-0.9916,-0.9867,-0.9814,-0.978,-0.9752,-0.9745,-0.9741,-0.9753,-0.9772,-0.9762,-0.9756,-0.9746,-0.9745,-0.9745,-0.9745,-0.9745,-1.0416,-1.0392,-1.0339,-1.0293,-1.0255,-1.0216,-1.0188,-1.0146,-1.0106,-1.005,-1.0022,-0.9975,-0.9924,-0.9848,-0.9816,-0.9778,-0.977,-0.9763,-0.9762,-0.9761,-0.9764,-0.9779,-0.9768,-0.9768,-0.9768,-0.9768,-0.9768,0,-1.0421,-1.0385,-1.0343,-1.0284,-1.0248,-1.0225,-1.0176,-1.0148,-1.0106,-1.0061,-1.002,-0.9966,-0.9919,-0.9867,-0.9818,-0.9797,-0.9783,-0.9786,-0.9787,-0.978,-0.9775,-0.9783,-0.9798,-0.9798,-0.9798,-0.9798,-0.9798,-0.9798,-1.0419,-1.0377,-1.0348,-1.0287,-1.025,-1.0203,-1.0177,-1.0141,-1.0104,-1.0045,-1.0006,-0.9973,-0.9925,-0.9871,-0.9828,-0.9814,-0.9797,-0.9804,-0.9786,-0.9782,-0.978,-0.9778,-0.9786,-0.9801,-0.9801,-0.9794,-0.9794,-0.9794]},{"header":{"parameterUnit":"m.s-1","parameterCategory":1,"la1":30.2991,"la2":30.254,"lo1":-89.0895,"lo2":-89.0444,"dy":0.0017,"dx":0.0017,"nx":28,"ny":28,"refTime":"2025-06-22T03:00:00:Z","depth":0,"parameterNumber":3,"parameterNumberName":"V-component_of_WINDS"},"data":[0,0,0,0,0,0,0,0,0,0,0,0,0,0,0,0,0,0,0,0,0,0,0,0,0,0,0,0,0,0,0,0,0,0,0,0,0,0,0,0,0,0,0,0,0,0,0,0,0,0,0,0,0,0,0,0,0,0,-0.1726,-0.1727,0,-0.1813,-0.1814,-0.1815,-0.189,-0.1891,-0.1892,-0.1892,-0.1983,-0.1984,-0.1986,0,0,0,0,0,0,0,0,0,0,0,0,0,-0.1624,-0.1625,-0.1726,-0.1727,-0.1728,-0.1813,-0.1814,-0.1815,-0.189,-0.1891,-0.1892,-0.1893,-0.1982,-0.1984,-0.1986,0,0,0,0,0,0,0,0,0,0,0,0,0,-0.1685,-0.1626,-0.1726,-0.1775,-0.1781,-0.1813,-0.1814,-0.1816,-0.189,-0.1891,-0.1892,-0.1893,-0.1982,-0.1984,-0.1986,-0.1977,0,0,-0.1994,-0.1995,0,0,0,0,0,0,0,0,-0.1681,-0.1689,-0.1767,-0.1772,-0.1778,-0.1842,-0.1811,-0.187,-0.1889,-0.1848,-0.1892,-0.1894,-0.1935,-0.1941,-0.1955,-0.1981,-0.1985,-0.1994,-0.1996,-0.1997,-0.1997,0,0,0,0,0,0,0,-0.1677,-0.1685,-0.176,-0.1768,-0.1775,-0.1793,-0.1803,-0.1823,-0.1884,-0.1852,-0.1858,-0.1867,-0.1938,-0.1953,-0.1958,-0.1986,-0.1994,-0.1996,-0.1998,-0.1999,-0.2008,-0.2007,0,0,0,0,0,0,-0.1665,-0.1681,-0.1758,-0.1763,-0.1732,-0.1794,-0.1805,-0.182,-0.1884,-0.1894,-0.1866,-0.187,-0.1948,-0.1955,-0.1961,-0.1955,-0.1997,-0.1999,-0.2,-0.2009,-0.2008,-0.2007,0,0,0,0,0,0,-0.1663,-0.1671,-0.1754,-0.1724,-0.1736,-0.1795,-0.181,-0.1821,-0.1836,-0.1894,-0.1905,-0.1869,-0.1949,-0.1958,-0.1972,-0.1959,-0.2,-0.2002,-0.2011,-0.2009,-0.2007,-0.1941,0,0,0,0,0,0,-0.1659,-0.167,-0.1667,-0.1723,-0.1737,-0.1764,-0.181,-0.1822,-0.184,-0.1846,-0.19,-0.191,-0.1951,-0.1968,-0.1975,-0.1963,-0.2004,-0.2012,-0.201,-0.2008,-0.1945,-0.1938,-0.1931,0,0,0,0,0,-0.1655,-0.1645,-0.1666,-0.1675,-0.1735,-0.1763,-0.1771,-0.1817,-0.1838,-0.1836,-0.1873,-0.1909,-0.1958,-0.1969,-0.1977,-0.1966,-0.2014,-0.2011,-0.2008,-0.1948,-0.1939,-0.1931,0,0,0,0,0,0,-0.1587,-0.1654,-0.1678,-0.1685,-0.1718,-0.1775,-0.1774,-0.1806,-0.1833,-0.1838,-0.1894,-0.1906,-0.1914,-0.1941,-0.1952,-0.196,-0.1991,-0.1989,-0.1943,-0.1934,-0.1927,-0.1922,-0.2006,0,0,0,0,0,-0.1572,-0.1589,-0.1647,-0.1648,-0.1663,-0.1715,-0.1729,-0.1761,-0.1798,-0.1812,-0.185,-0.1884,-0.1907,-0.1922,-0.1947,-0.1948,-0.1962,-0.1944,-0.1937,-0.1931,-0.193,-0.1934,-0.1927,-0.1998,-0.1998,-0.1998,0,0,-0.1543,-0.1582,-0.1589,-0.1635,-0.1664,-0.1681,-0.1726,-0.1742,-0.1755,-0.1814,-0.1831,-0.186,-0.1901,-0.1909,-0.1914,-0.1932,-0.1913,-0.1928,-0.1922,-0.1925,-0.193,-0.1923,-0.1918,-0.1996,-0.1996,-0.1996,0,0,-0.1499,-0.1529,-0.1534,-0.1561,-0.1604,-0.1639,-0.1639,-0.1692,-0.1713,-0.173,-0.1775,-0.1791,-0.183,-0.1858,-0.1877,-0.184,-0.1875,-0.1846,-0.1811,-0.1814,-0.1808,-0.1804,-0.1792,-0.1787,-0.1845,-0.1845,-0.1844,0,-0.1458,-0.1485,-0.1532,-0.1546,-0.1565,-0.1617,-0.1622,-0.1647,-0.1695,-0.1707,-0.1725,-0.1775,-0.1806,-0.1822,-0.1813,-0.1826,-0.1829,-0.1842,-0.1805,-0.1801,-0.1797,-0.1787,-0.1782,-0.1841,-0.1841,-0.1842,-0.1842,0,-0.1433,-0.1451,-0.1449,-0.1495,-0.1513,-0.1522,-0.157,-0.1583,-0.1613,-0.1645,-0.1661,-0.17,-0.1734,-0.1739,-0.1769,-0.1759,-0.1768,-0.1794,-0.1828,-0.1786,-0.1778,-0.1774,-0.1836,-0.1837,-0.1838,-0.1839,0,0,-0.1352,-0.1421,-0.142,-0.1441,-0.1491,-0.1506,-0.1516,-0.1549,-0.1559,-0.159,-0.1601,-0.1631,-0.1656,-0.1677,-0.171,-0.1712,-0.1682,-0.1738,-0.174,-0.1728,-0.1674,-0.1656,-0.1651,-0.1703,-0.1702,-0.1702,-0.1671,0,-0.1318,-0.1341,-0.1383,-0.1393,-0.141,-0.1458,-0.1468,-0.1499,-0.1529,-0.1548,-0.1581,-0.1602,-0.1632,-0.1645,-0.1649,-0.1684,-0.1672,-0.1687,-0.1715,-0.1716,-0.1706,-0.1646,-0.1627,-0.1596,-0.1668,-0.1667,-0.1667,0,-0.1283,-0.131,-0.1321,-0.1369,-0.1378,-0.1386,-0.1419,-0.1435,-0.1471,-0.1493,-0.1515,-0.1551,-0.1565,-0.1592,-0.1612,-0.1621,-0.1635,-0.1654,-0.1654,-0.1661,-0.1691,-0.1653,-0.1588,-0.1584,-0.1662,-0.1662,-0.1663,0,-0.1225,-0.1264,-0.1277,-0.1292,-0.1348,-0.1352,-0.1376,-0.1413,-0.1429,-0.1457,-0.1469,-0.1497,-0.1514,-0.1535,-0.1577,-0.1593,-0.1593,-0.1624,-0.1612,-0.1611,-0.1613,-0.1613,-0.1551,-0.1617,-0.1617,-0.1617,-0.1617,0,-0.1185,-0.119,-0.1251,-0.1259,-0.1266,-0.1313,-0.1319,-0.1346,-0.1379,-0.1393,-0.1435,-0.1447,-0.1501,-0.1519,-0.1551,-0.1564,-0.157,-0.1588,-0.1598,-0.1586,-0.1584,-0.1598,-0.1602,-0.1616,-0.1616,-0.1616,-0.1616,0,-0.1124,-0.1164,-0.1181,-0.1231,-0.1244,-0.1247,-0.129,-0.1299,-0.133,-0.1347,-0.1354,-0.1402,-0.1426,-0.1469,-0.1504,-0.1526,-0.1532,-0.1546,-0.152,-0.1526,-0.1513,-0.1514,-0.146,-0.1456,-0.1522,-0.1521,-0.152,0,-0.1097,-0.1102,-0.1152,-0.1164,-0.1186,-0.1204,-0.1221,-0.1266,-0.1282,-0.1322,-0.1326,-0.1352,-0.1377,-0.1411,-0.145,-0.1478,-0.1494,-0.1473,-0.1499,-0.1487,-0.1496,-0.1497,-0.1498,-0.1468,-0.1467,-0.1467,-0.1466,0,-0.1045,-0.1064,-0.1087,-0.1115,-0.1133,-0.1158,-0.1185,-0.1193,-0.1244,-0.1259,-0.1283,-0.1301,-0.1337,-0.1363,-0.1395,-0.1419,-0.1452,-0.1457,-0.1456,-0.1446,-0.1431,-0.1441,-0.1507,-0.1459,-0.146,-0.146,-0.146,-0.1461,-0.1002,-0.1009,-0.1045,-0.1068,-0.1092,-0.1116,-0.1127,-0.1159,-0.1179,-0.1212,-0.1237,-0.1259,-0.1294,-0.134,-0.1362,-0.138,-0.1395,-0.1394,-0.1394,-0.1393,-0.1389,-0.1426,-0.1386,-0.1386,-0.1386,-0.1387,-0.1387,0,-0.0955,-0.0979,-0.1,-0.1036,-0.1053,-0.108,-0.1111,-0.1124,-0.1143,-0.1172,-0.1194,-0.1221,-0.1246,-0.1286,-0.1314,-0.132,-0.1336,-0.1326,-0.1328,-0.1333,-0.1373,-0.1372,-0.1314,-0.1314,-0.1314,-0.1314,-0.1314,-0.1314,-0.0932,-0.0945,-0.0968,-0.0994,-0.1019,-0.1041,-0.1056,-0.1078,-0.1102,-0.113,-0.1151,-0.1176,-0.1209,-0.124,-0.1263,-0.1274,-0.1284,-0.127,-0.1286,-0.1323,-0.133,-0.1337,-0.1336,-0.1271,-0.1271,-0.1244,-0.1244,-0.1244]}]]